This is the latest recevied weather packets stored in our database for station/object KN6WGU. If no packets are shown the sender has not sent any weather packets the latest 10 day(s).
| Time | Temp. | Humidity | Pressure | Rain* | Wind** | Luminosity | Snow |
|---|---|---|---|---|---|---|---|
| 1788543029 | 22.78° C | 96% | 1010.4 hPa | 1.27 mm | - | 41 W/m² | - |
| 1788542725 | 22.78° C | 96% | 1010.5 hPa | 0 mm | - | 50 W/m² | - |
| 1788542424 | 22.78° C | 96% | 1010.5 hPa | 0 mm | - | 64 W/m² | - |
| 1788542120 | 23.33° C | 96% | 1010.8 hPa | 0 mm | - | 73 W/m² | - |
| 1788541815 | 23.33° C | 95% | 1010.6 hPa | 0 mm | - | 84 W/m² | - |
| 1788541511 | 23.33° C | 95% | 1010.5 hPa | 0 mm | - | 94 W/m² | - |
| 1788541207 | 23.33° C | 96% | 1010.3 hPa | 0 mm | - | 122 W/m² | - |
| 1788540905 | 22.78° C | 97% | 1009.9 hPa | 0 mm | - | 164 W/m² | - |
| 1788540605 | 22.78° C | 98% | 1010.1 hPa | 0 mm | - | 187 W/m² | - |
| 1788540300 | 22.78° C | 98% | 1010.2 hPa | 0 mm | - | 160 W/m² | - |
| 1788539996 | 22.22° C | 99% | 1010 hPa | 0 mm | - | 141 W/m² | - |
| 1788539689 | 22.22° C | 99% | 1010.3 hPa | 0 mm | - | 102 W/m² | - |
| 1788539384 | 22.78° C | 99% | 1010.1 hPa | 0 mm | - | 97 W/m² | - |
| 1788539080 | 22.78° C | 99% | 1010.2 hPa | 0 mm | - | 93 W/m² | - |
| 1788538775 | 22.78° C | 99% | 1010.5 hPa | 0 mm | - | 91 W/m² | - |
| 1788538470 | 22.78° C | 99% | 1010.5 hPa | 1.78 mm | - | 69 W/m² | - |
| 1788538166 | 22.78° C | 99% | 1010.9 hPa | 1.78 mm | - | 63 W/m² | - |
| 1788537860 | 22.78° C | 99% | 1010.5 hPa | 7.11 mm | - | 61 W/m² | - |
| 1788537555 | 22.78° C | 99% | 1010.4 hPa | 7.11 mm | - | 43 W/m² | - |
| 1788537250 | 22.78° C | 99% | 1010.7 hPa | 0 mm | - | 35 W/m² | - |
| 1788536949 | 22.22° C | 99% | 1011 hPa | 0 mm | - | 29 W/m² | - |
| 1788536643 | 22.22° C | 99% | 1010.7 hPa | 0 mm | - | 28 W/m² | - |
| 1788536339 | 22.22° C | 99% | 1010.9 hPa | 1.78 mm | - | 26 W/m² | - |
| 1788536034 | 22.22° C | 99% | 1011.1 hPa | 1.78 mm | - | 35 W/m² | - |
| 1788535730 | 21.67° C | 99% | 1010.8 hPa | 1.78 mm | - | 58 W/m² | - |
* Rain latest hour (hover to see other rain measurements)
** Current wind speed in m/s (hover to see current wind gust speed)